Tracking 19564 objects as of 19-Mar-2019
HD Live streaming from Space Station
objects crossing your sky now

BIRD GG

Track BIRD GG now!
10-day predictions
BIRD GG is classified as:


NORAD ID: 42821
Int'l Code: 1998-067MV
Perigee: 312.8 km
Apogee: 318.5 km
Inclination: 51.6 °
Period: 90.7 minutes
Semi major axis: 6686 km
RCS: Unknown
Launch date: November 20, 1998
Source: (GHA)
Launch site: TYURATAM MISSILE AND SPACE COMPLEX (TTMTR)

Uplink (MHz):
Downlink (MHz): 437.375
Beacon (MHz): 437.372
Mode: 1k2AFSK 9k6GMSK CW
Call sign: JG6YJP
Status: Inactive

aabbcc
Your satellite tracking list
Your tracking list is empty




NASA's NSSDC Master Catalog

Two Line Element Set (TLE):
1 42821U 98067MV  19077.31674767  .00102254  00000-0  36993-3 0  9999
2 42821  51.6249  31.5601 0004255 121.6789 238.4631 15.87785772 97035
Source of the keplerian elements: AMSAT